GM7AFE Weather Reports


time (UTC)temp
F
wind
direction
speed
knots
gust
knots
rain 1hr
in
rain 24hr
in
rain mn
in
humidity
%
barometer
mb
20260508045553 47 160 13.0 18.2 0.00 0.00 0.00 91 1006.4
20260508044550 47 180 13.9 17.4 0.00 0.00 0.00 91 1006.3
20260508043547 47 169 13.0 15.6 0.00 0.00 0.00 92 1006.4
20260508042544 47 180 12.2 18.2 0.00 0.00 0.00 92 1006.5
20260508041601 47 184 13.0 15.6 0.00 0.00 0.00 91 1006.4
20260508040538 47 173 13.0 18.2 0.00 0.00 0.00 91 1006.4
20260508035535 47 166 14.8 19.1 0.00 0.00 0.00 91 1006.3
20260508034532 47 169 13.9 20.0 0.00 0.00 0.00 92 1006.4
20260508033528 47 161 13.0 18.2 0.00 0.00 0.00 92 1006.4
20260508032525 47 175 13.0 18.2 0.00 0.00 0.00 92 1006.4
20260508031542 47 183 13.9 20.0 0.00 0.00 0.00 92 1006.5
20260508030519 47 156 13.9 18.2 0.00 0.00 0.00 92 1006.4
20260508025515 47 149 14.8 20.0 0.00 0.00 0.00 92 1006.6
20260508024613 47 151 14.8 20.0 0.00 0.00 0.00 91 1006.6
20260508023629 47 157 14.8 20.0 0.00 0.00 0.00 91 1006.6
20260508022606 47 156 14.8 20.9 0.00 0.00 0.00 91 1006.5
20260508021623 47 154 15.6 20.9 0.00 0.00 0.00 91 1006.7
20260508020600 47 158 17.4 25.2 0.00 0.00 0.00 91 1006.8
20260508015617 47 158 16.5 23.5 0.00 0.00 0.00 91 1006.7
20260508014554 47 146 17.4 23.5 0.00 0.00 0.00 91 1006.8
20260508013551 47 158 16.5 26.9 0.00 0.00 0.00 91 1006.9
20260508012548 47 161 18.2 26.1 0.00 0.00 0.00 90 1006.9
20260508011544 47 158 18.2 25.2 0.00 0.00 0.00 90 1006.9
20260508010622 47 154 17.4 23.5 0.00 0.00 0.00 90 1007.0
20260508005538 47 143 16.5 23.5 0.00 0.00 0.00 90 1007.0
20260508004535 47 176 19.1 26.9 0.00 0.00 0.00 90 1006.9
20260508003632 47 173 19.1 25.2 0.00 0.00 0.00 89 1007.1
20260508002529 47 154 17.4 26.9 0.00 0.00 0.00 89 1007.3
20260508001526 47 153 19.1 29.5 0.00 0.00 0.00 90 1007.1
20260508000522 47 135 16.5 19.1 0.00 0.00 0.00 89 1007.2
20260507235521 47 154 19.1 25.2 0.00 0.00 0.00 89 1007.3
20260507234516 47 172 16.5 23.5 0.00 0.00 0.00 89 1007.4
20260507233613 47 147 17.4 23.5 0.00 0.00 0.00 88 1007.5
20260507232612 47 154 16.5 23.5 0.00 0.00 0.00 88 1007.6
20260507231626 47 160 16.5 26.1 0.00 0.00 0.00 88 1007.7
20260507230603 47 157 16.5 23.5 0.00 0.00 0.00 88 1007.7
20260507225600 47 177 15.6 23.5 0.00 0.00 0.00 88 1007.8
20260507224557 47 176 18.2 23.5 0.00 0.00 0.00 87 1007.8
20260507223554 47 142 18.2 23.5 0.00 0.00 0.00 87 1007.9
20260507222611 47 160 18.2 25.2 0.00 0.00 0.00 87 1008.0
20260507221548 46 143 19.1 26.1 0.00 0.00 0.00 86 1008.1
20260507220545 46 146 19.1 25.2 0.00 0.00 0.00 86 1007.9
20260507215541 46 158 17.4 26.1 0.00 0.00 0.00 86 1008.1
20260507214538 46 161 19.1 25.2 0.00 0.00 0.00 86 1008.2
20260507213535 46 165 18.2 26.1 0.00 0.00 0.00 85 1008.2
20260507212532 46 162 19.1 26.1 0.00 0.00 0.00 85 1008.3
20260507211529 46 138 20.0 27.8 0.00 0.00 0.00 85 1008.3
20260507210526 46 147 16.5 23.5 0.00 0.00 0.00 85 1008.4
20260507205523 46 170 18.2 23.5 0.00 0.00 0.00 85 1008.6
20260507204519 46 150 16.5 21.7 0.00 0.00 0.00 85 1008.5
20260507203516 46 165 17.4 23.5 0.00 0.00 0.00 85 1008.5
20260507202613 46 159 17.4 25.2 0.00 0.00 0.00 85 1008.4
20260507201610 46 156 17.4 21.7 0.00 0.00 0.00 85 1008.6
20260507200607 46 143 17.4 23.5 0.00 0.00 0.00 84 1008.7
20260507195604 46 149 16.5 23.5 0.00 0.00 0.00 85 1008.6
20260507194600 46 165 16.5 21.7 0.00 0.00 0.00 85 1008.7
20260507193618 46 164 16.5 23.5 0.00 0.00 0.00 85 1008.6
20260507192635 46 158 16.5 20.9 0.00 0.00 0.00 84 1008.6
20260507191632 47 146 16.5 23.5 0.00 0.00 0.00 84 1008.7
20260507190548 47 147 17.4 23.5 0.00 0.00 0.00 84 1008.6
20260507185545 47 146 15.6 21.7 0.00 0.00 0.00 84 1008.5
20260507184542 47 153 18.2 21.7 0.00 0.00 0.00 84 1008.6
20260507183539 47 147 16.5 23.5 0.00 0.00 0.00 84 1008.7
20260507182535 47 147 17.4 26.1 0.00 0.00 0.00 84 1008.6
20260507181552 47 154 16.5 20.9 0.00 0.00 0.00 84 1008.6
20260507180549 47 161 16.5 21.7 0.00 0.00 0.00 83 1008.7
20260507175526 47 146 15.6 19.1 0.00 0.00 0.00 84 1008.8
20260507174522 47 157 17.4 25.2 0.00 0.00 0.00 83 1008.8
20260507173519 47 158 17.4 23.5 0.00 0.00 0.00 83 1008.8
20260507172516 47 135 18.2 26.1 0.00 0.00 0.00 83 1008.9
20260507171613 47 163 16.5 23.5 0.00 0.00 0.00 83 1009.1
20260507170610 47 154 16.5 23.5 0.00 0.00 0.00 83 1009.1
20260507165607 47 180 15.6 21.7 0.00 0.00 0.00 82 1009.2
20260507164604 47 146 17.4 23.5 0.00 0.00 0.00 82 1009.4
20260507163621 47 156 15.6 26.1 0.00 0.00 0.00 83 1009.3
20260507162557 46 143 16.5 23.5 0.00 0.00 0.00 83 1009.4
20260507161555 46 165 17.4 23.5 0.00 0.00 0.00 84 1009.6
20260507160551 46 147 16.5 25.2 0.00 0.00 0.00 84 1009.6
20260507155548 46 156 17.4 23.5 0.00 0.00 0.00 84 1009.7
20260507154545 46 154 18.2 23.5 0.00 0.00 0.00 83 1009.7
20260507153542 47 154 15.6 21.7 0.00 0.00 0.00 79 1009.8
20260507152539 47 150 15.6 23.5 0.00 0.00 0.00 77 1009.9
20260507151535 47 161 16.5 20.9 0.00 0.00 0.00 76 1010.0
20260507150532 47 169 17.4 23.5 0.00 0.00 0.00 75 1010.1
20260507145529 47 157 17.4 23.5 0.00 0.00 0.00 75 1010.1
20260507144526 47 143 17.4 23.5 0.00 0.00 0.00 76 1010.1
20260507143543 47 146 18.2 26.1 0.00 0.00 0.00 74 1010.1
20260507142519 47 135 15.6 23.5 0.00 0.00 0.00 77 1010.1
20260507141516 47 135 17.4 25.2 0.00 0.00 0.00 76 1010.3
20260507140613 47 138 17.4 23.5 0.00 0.00 0.00 76 1010.3
20260507135611 47 154 17.4 25.2 0.00 0.00 0.00 75 1010.3
20260507134607 46 146 18.2 23.5 0.00 0.00 0.00 74 1010.4
20260507133604 47 150 17.4 25.2 0.00 0.00 0.00 79 1010.5
20260507132621 47 146 16.5 20.9 0.00 0.00 0.00 82 1010.5
20260507131558 46 153 17.4 23.5 0.00 0.00 0.00 82 1010.5
20260507130615 47 157 17.4 26.1 0.00 0.00 0.00 76 1010.5
20260507125552 47 139 19.1 25.2 0.00 0.00 0.00 73 1010.7
20260507124548 47 123 17.4 23.5 0.00 0.00 0.00 73 1010.8
20260507123546 47 147 17.4 23.5 0.00 0.00 0.00 71 1010.8
20260507122602 47 131 15.6 23.5 0.00 0.00 0.00 74 1010.8
20260507121539 48 134 14.8 21.7 0.00 0.00 0.00 75 1011.0
20260507120536 47 150 16.5 23.5 0.00 0.00 0.00 74 1010.8
20260507115532 48 145 16.5 21.7 0.00 0.00 0.00 73 1010.9
20260507114529 48 153 17.4 23.5 0.00 0.00 0.00 73 1011.0
20260507113526 47 157 17.4 25.2 0.00 0.00 0.00 74 1010.9
20260507112523 46 143 15.6 20.0 0.00 0.00 0.00 77 1011.1
20260507111540 47 149 14.8 20.0 0.00 0.00 0.00 75 1011.1
20260507110517 47 135 17.4 20.9 0.00 0.00 0.00 72 1011.2
20260507105614 47 150 16.5 23.5 0.00 0.00 0.00 74 1011.0
20260507104611 47 151 16.5 23.5 0.00 0.00 0.00 76 1011.0
20260507103608 46 157 15.6 25.2 0.00 0.00 0.00 77 1011.1
20260507102625 46 146 15.6 21.7 0.00 0.00 0.00 79 1011.0
20260507101601 46 156 13.9 20.0 0.00 0.00 0.00 80 1011.2
20260507100558 46 134 14.8 20.9 0.00 0.00 0.00 81 1011.3
20260507095555 45 139 14.8 19.1 0.00 0.00 0.00 81 1011.4
20260507094552 46 143 14.8 20.9 0.00 0.00 0.00 77 1011.2
20260507093549 46 147 14.8 20.9 0.00 0.00 0.00 76 1011.4
20260507092545 46 146 15.6 21.7 0.00 0.00 0.00 76 1011.4
20260507091542 47 161 15.6 21.7 0.00 0.00 0.00 75 1011.4
20260507090539 47 142 13.9 20.9 0.00 0.00 0.00 74 1011.4
20260507085536 47 151 13.0 17.4 0.00 0.00 0.00 75 1011.5
20260507084533 47 158 13.9 19.1 0.00 0.00 0.00 73 1011.5
20260507083530 47 146 15.6 23.5 0.00 0.00 0.00 72 1011.5
20260507082546 47 162 14.8 20.9 0.00 0.00 0.00 73 1011.5
20260507081523 47 150 13.9 19.1 0.00 0.00 0.00 74 1011.4
20260507080540 47 150 12.2 20.0 0.00 0.00 0.00 75 1011.6
20260507075517 47 160 13.0 19.1 0.00 0.00 0.00 74 1011.6
20260507074614 47 141 10.4 13.9 0.00 0.00 0.00 76 1011.5
20260507073611 46 135 13.0 17.4 0.00 0.00 0.00 76 1011.5
20260507072648 46 146 11.3 15.6 0.00 0.00 0.00 77 1011.5
20260507071605 44 150 10.4 13.9 0.00 0.00 0.00 73 1011.6
20260507070601 43 130 7.8 13.9 0.00 0.00 0.00 77 1011.7
20260507065558 44 143 12.2 17.4 0.00 0.00 0.00 74 1011.7
20260507064555 45 159 12.2 23.5 0.00 0.00 0.00 74 1011.6
20260507063552 45 133 8.7 13.0 0.00 0.00 0.00 71 1011.8
20260507062549 44 139 7.0 9.6 0.00 0.00 0.00 71 1012.0
20260507061546 44 161 8.7 13.0 0.00 0.01 0.00 73 1011.8
20260507060542 43 153 7.8 12.2 0.00 0.01 0.00 76 1011.9
20260507055539 43 162 8.7 13.9 0.00 0.01 0.00 78 1012.0
20260507054536 43 116 7.8 11.3 0.00 0.01 0.00 82 1012.0
20260507053533 43 105 9.6 13.0 0.00 0.01 0.00 82 1012.0
20260507052530 43 134 7.0 11.3 0.00 0.02 0.00 80 1012.0
20260507051547 43 131 7.0 9.6 0.00 0.02 0.00 80 1012.0
20260507050523 43 97 8.7 12.2 0.00 0.04 0.00 81 1012.1